Meteo Giornale » Osservazioni meteo Stati Uniti (USA) » Eugene Mahlon Sweet Fld
ore: 14:54 - Osservazioni Meteo Eugene Mahlon Sweet Fld
Lat. 44° 8' N Lon. 123° 12' W Alt. 111 metri s.l.m.
19 °C
Coperto
Temp. 24 Ore
15 °C
30 °C
Sud/Sud-Ovest
14.8 Km/h
Dew point 11 °C
Umidità 59 %
Visibilità 10 Km
Il sole sorge alle ore 06:36
Il sole tramonta alle ore 19:49
| Data e Ora | Cielo e Fenomeni | T °C | DP °C | Um. % | Pres. hPa | Vis. km | Vento km/h | |
|---|---|---|---|---|---|---|---|---|
| Oggi h: 14:54 | Coperto | 19 | 11 | 59 | 1012 | 10 | S/SO 14.8 | |
| Oggi h: 13:54 | Coperto | 19 | 11 | 59 | 1012 | 10 | S 14.8 | |
| Oggi h: 12:54 | Molto Nuvoloso | 19 | 11 | 59 | 1012 | 10 | S/SO 20.3 | |
| Oggi h: 11:54 | Coperto | 18 | 11 | 63 | 1012 | 10 | S 13 | |
| Oggi h: 10:54 | Molto Nuvoloso | 18 | 12 | 67 | 1013 | 10 | S/SO 18.5 | |
| Oggi h: 09:54 | Coperto | 17 | 12 | 72 | 1012 | 10 | S 11.1 | |
| Oggi h: 08:54 | Coperto | 16 | 12 | 77 | 1013 | 10 | S 13 | |
| Oggi h: 07:54 | Coperto | 16 | 12 | 77 | 1012 | 10 | S 11.1 | |
| Oggi h: 06:54 | Coperto | 16 | 12 | 77 | 1012 | 10 | S 9.3 | |
| Oggi h: 05:54 | Pioviggine | 16 | 12 | 77 | 1012 | 10 | S/SO 14.8 | |
| Oggi h: 05:37 | Coperto | 16 | 12 | 77 | 1012 | 10 | S/SO 9.3 | |
| Oggi h: 04:54 | Coperto | 16 | 12 | 77 | 1012 | 10 | S/SO 9.3 | |
| Oggi h: 04:12 | Coperto | 16 | 12 | 77 | 1011 | 10 | S/SO 11.1 | |
| Oggi h: 03:54 | Coperto | 16 | 12 | 77 | 1011 | 10 | S/SO 13 | |
| Oggi h: 02:54 | Coperto | 16 | 12 | 77 | 1011 | 10 | SO 9.3 | |
| Oggi h: 01:54 | Coperto | 16 | 12 | 77 | 1012 | 10 | S 11.1 | |
| Oggi h: 00:54 | Coperto | 16 | 12 | 77 | 1011 | 10 | S/SO 9.3 | |
| Oggi h: 00:09 | Molto Nuvoloso | 15 | 12 | 82 | 1011 | 10 | S 13 | |
| Ieri h: 23:54 | Poco Nuvoloso | 15 | 12 | 82 | 1011 | 10 | S 13 | |
| Ieri h: 22:54 | Nuvoloso | 16 | 12 | 77 | 1011 | 10 | S/SO 22.2 | |
| Ieri h: 21:54 | Nuvoloso | 16 | 12 | 77 | 1011 | 10 | S/SO 20.3 | |
| Ieri h: 20:54 | Nuvoloso | 17 | 12 | 72 | 1010 | 10 | S/SO 25.9 | |
| Ieri h: 19:54 | Molto Nuvoloso | 20 | 12 | 59 | 1009 | 10 | SO 29.6 | |
| Ieri h: 18:54 | Molto Nuvoloso | 23 | 12 | 49 | 1008 | 10 | SO 25.9 | |
| Ieri h: 17:54 | Molto Nuvoloso | 27 | 12 | 39 | 1008 | 10 | SO 27.8 | |
| Ieri h: 16:54 | Molto Nuvoloso | 30 | 11 | 30 | 1007 | 14 | SO 16.7 | |
| Ieri h: 15:54 | Caligine | 29 | 12 | 35 | 1008 | 10 | N 7.4 | |



